Location: Belmont
(13.0833°N, 59.6000°W)
Time: 06:55:00
(UTC+00:00)

Daily predictions for brighter satellites

Satellite Brightness Start Highest point End
(mag) Time Altitude Azimuth Time Altitude Azimuth Time Altitude Azimuth
Cosmos 1975 2.9 22:13:52 10° S 22:17:49 83° W 22:21:48 10° N
YAOGAN 1 3.3 22:16:01 10° SE 22:19:51 31° ENE 22:23:40 10° NNE
NOAA 12 4.2 22:16:42 10° S 22:21:56 84° WSW 22:27:10 10° NNW
SWIFT 2.5 22:20:11 10° WNW 22:24:23 65° NNE 22:28:29 10° E
Nadezhda 1 Rocket 4.3 22:26:15 10° SSE 22:31:57 42° E 22:37:36 10° NNE
ARIANE 5 R/B 3.7 22:25:54 10° WSW 22:34:44 21° SSW 22:37:54 10° SSE
Aurora 2 Rocket 4.5 22:23:54 10° WSW 22:34:46 84° SSE 22:43:05 10° ENE
Cosmos 2219 3.6 22:30:32 10° S 22:35:53 42° ESE 22:41:16 10° NE
Meteor 2-15 4.4 22:30:12 10° S 22:36:16 69° E 22:42:21 10° N
GPS 2-17 Rocket1 3.5 22:32:26 10° W 22:36:43 51° NNW 22:40:40 11° ENE
Cosmos 2227 Rocket 3.3 22:33:06 10° SSE 22:37:12 21° ESE 22:41:18 10° NE
Cosmos 405 3.5 22:35:59 10° NNE 22:39:12 36° E 22:42:25 10° SSE
Meteor 2-9 Rocket 4.4 22:34:28 10° S 22:40:20 85° W 22:46:08 10° N
GPS 2-14 Rocket1 4.0 22:37:56 10° WNW 22:41:19 30° N 22:44:26 11° NE
Cosmos 2360 Rocket 2.9 22:36:32 10° N 22:41:31 32° ENE 22:46:30 10° SE
Cosmos 2151 Rocket 4.3 22:37:46 10° SSW 22:42:08 58° W 22:46:27 10° N
Cosmos 1842 4.4 22:39:09 10° NNE 22:42:19 23° E 22:45:11 11° SE
Okean 2 3.3 22:39:14 10° N 22:43:19 72° E 22:47:25 10° S
Cosmos 1544 3.1 22:40:09 10° S 22:43:36 49° E 22:47:04 10° NNE
Lacrosse 4 Rocket 1.6 22:41:01 10° N 22:44:52 45° ENE 22:48:46 10° SE
Cosmos 2297 Rocket 2.9 22:43:23 10° SSE 22:48:13 30° ESE 22:53:03 10° NE
CZ-4 R/B 1.9 22:47:14 10° S 22:51:00 57° W 22:54:47 10° NNW
Envisat 3.9 22:47:41 10° S 22:52:36 53° W 22:57:32 10° NNW
CZ-2C R/B 3.6 22:53:48 10° NNE 22:58:08 58° ESE 23:02:29 10° S
Cosmos 1441 Rocket 3.4 22:56:16 10° S 23:00:09 75° W 23:03:59 10° N
SL-16 R/B 3.1 22:55:21 10° NNW 23:00:47 50° WSW 23:06:14 10° S
SAR-Lupe-2 3.8 23:01:30 10° N 23:05:02 69° WNW 23:08:34 10° SSW
ISS -0.8 23:09:48 10° W 23:11:50 15° NW 23:13:53 10° N
ADEOS Rocket 3.8 23:04:50 10° NNE 23:12:01 43° E 23:19:14 10° S
Cosmos 2251 Rocket 4.0 23:07:26 10° N 23:12:22 38° ENE 23:13:11 35° E
Ariane H10+ 3.8 23:11:40 10° WSW 23:15:35 47° S 23:21:51 26° ESE
ASTEX 1 3.2 23:14:38 10° NNE 23:19:28 66° E 23:24:19 10° S
Genesis I 3.1 23:18:58 10° NNW 23:22:23 62° NNE 23:22:23 62° NNE
Cosmos 2333 Rocket 3.9 23:19:26 10° NNE 23:21:19 17° NE 23:21:19 17° NE
Okean 1 Rocket 4.4 23:22:45 10° SSW 23:26:48 40° W 23:30:51 10° NNW
Cosmos 1939 Rocket 3.0 23:24:27 22° S 23:26:54 70° W 23:30:44 10° NNW
Cosmos 2074 Rocket 4.0 23:21:12 10° N 23:27:24 80° W 23:33:35 10° S
Cosmos 2084 Rocket 4.4 23:27:46 10° SW 23:32:01 49° WNW 23:36:00 12° N
Ariane Rocket 3.2 23:29:51 10° S 23:34:52 70° WSW 23:39:53 10° NNW
COSMOS 2455 3.1 23:31:36 10° N 23:36:43 46° NE 23:36:43 46° NE
CZ-3 Stage 3 2.7 23:34:25 10° W 23:38:43 26° NW 23:38:47 26° NW
MOS 1 4.1 23:40:40 62° SE 23:41:32 74° ENE 23:47:13 10° N
Cosmos 2056 Rocket 3.9 23:36:39 10° SSW 23:41:59 65° WNW 23:47:21 10° N
Lacrosse 5 rocket 3.6 23:39:26 10° WSW 23:42:04 19° NW 23:44:10 13° NNW
Delta 142 4.5 23:34:41 10° WNW 23:42:53 81° NNE 23:44:05 63° E
Cosmos 2154 Rocket 3.8 23:42:57 10° N 23:49:08 87° E 23:51:01 48° S
